Wetterdaten: Sonntag, 04.10.2015
Datum Zeit Temp. A. Feuchte A. Luftdruck Regen Wind Richtung Richtung Sonnenschein ET UV Solar Taupunkt Windchill Windben Empfang
04.10.2015 00:04 9,3 C 94 % 1014,6 hPa 0,0 l/m 0,0 km/h (0 Bft) S 179 0 min 0,000 mm 0,0 UV-I 0 W/m 8,4 C 9,3 C 0,0 km/h (0 Bft) 0,00 %
04.10.2015 00:09 9,2 C 95 % 1014,7 hPa 0,0 l/m 0,0 km/h (0 Bft) O-NO 59 0 min 0,000 mm 0,0 UV-I 0 W/m 8,4 C 9,2 C 0,0 km/h (0 Bft) 0,00 %
04.10.2015 00:14 9,1 C 95 % 1014,8 hPa 0,0 l/m 0,0 km/h (0 Bft) S 174 0 min 0,000 mm 0,0 UV-I 0 W/m 8,3 C 9,1 C 0,0 km/h (0 Bft) 0,00 %
04.10.2015 00:19 9,1 C 95 % 1014,8 hPa 0,0 l/m 0,0 km/h (0 Bft) O-NO 63 0 min 0,000 mm 0,0 UV-I 0 W/m 8,3 C 9,1 C 0,0 km/h (0 Bft) 0,00 %
04.10.2015 00:24 9,0 C 96 % 1014,8 hPa 0,0 l/m 0,0 km/h (0 Bft) O-NO 75 0 min 0,000 mm 0,0 UV-I 0 W/m 8,4 C 9,0 C 0,0 km/h (0 Bft) 0,00 %
04.10.2015 00:29 8,9 C 96 % 1014,9 hPa 0,0 l/m 0,0 km/h (0 Bft) O-NO 75 0 min 0,000 mm 0,0 UV-I 0 W/m 8,3 C 8,9 C 0,0 km/h (0 Bft) 0,00 %
04.10.2015 00:34 8,7 C 96 % 1014,9 hPa 0,0 l/m 0,0 km/h (0 Bft) O-NO 74 0 min 0,000 mm 0,0 UV-I 0 W/m 8,1 C 8,7 C 0,0 km/h (0 Bft) 0,00 %
04.10.2015 00:39 8,6 C 96 % 1015,0 hPa 0,0 l/m 0,0 km/h (0 Bft) O-NO 72 0 min 0,000 mm 0,0 UV-I 0 W/m 8,0 C 8,6 C 0,0 km/h (0 Bft) 0,00 %
04.10.2015 00:44 8,5 C 96 % 1015,1 hPa 0,0 l/m 0,0 km/h (0 Bft) NO 56 0 min 0,000 mm 0,0 UV-I 0 W/m 7,9 C 8,5 C 0,0 km/h (0 Bft) 0,00 %
04.10.2015 00:49 8,4 C 96 % 1015,0 hPa 0,0 l/m 0,0 km/h (0 Bft) O-NO 57 0 min 0,000 mm 0,0 UV-I 0 W/m 7,8 C 8,4 C 0,0 km/h (0 Bft) 0,00 %
04.10.2015 00:54 8,4 C 96 % 1015,2 hPa 0,0 l/m 0,0 km/h (0 Bft) O-NO 68 0 min 0,000 mm 0,0 UV-I 0 W/m 7,8 C 8,4 C 0,0 km/h (0 Bft) 0,00 %
04.10.2015 00:59 8,3 C 96 % 1015,0 hPa 0,0 l/m 0,0 km/h (0 Bft) O-NO 66 0 min 0,000 mm 0,0 UV-I 0 W/m 7,7 C 8,3 C 0,0 km/h (0 Bft) 0,00 %
04.10.2015 01:04 8,1 C 97 % 1015,1 hPa 0,0 l/m 0,0 km/h (0 Bft) O-NO 65 0 min 0,000 mm 0,0 UV-I 0 W/m 7,7 C 8,1 C 0,0 km/h (0 Bft) 0,00 %
04.10.2015 01:09 8,0 C 97 % 1015,0 hPa 0,0 l/m 0,0 km/h (0 Bft) O-NO 72 0 min 0,000 mm 0,0 UV-I 0 W/m 7,6 C 8,0 C 0,0 km/h (0 Bft) 0,00 %
04.10.2015 01:14 8,1 C 97 % 1015,1 hPa 0,0 l/m 0,0 km/h (0 Bft) SO 131 0 min 0,000 mm 0,0 UV-I 0 W/m 7,7 C 8,1 C 0,0 km/h (0 Bft) 0,00 %
04.10.2015 01:19 8,3 C 97 % 1015,1 hPa 0,0 l/m 0,0 km/h (0 Bft) O-NO 69 0 min 0,000 mm 0,0 UV-I 0 W/m 7,9 C 8,3 C 0,0 km/h (0 Bft) 0,00 %
04.10.2015 01:24 8,3 C 97 % 1015,1 hPa 0,0 l/m 0,0 km/h (0 Bft) SO 129 0 min 0,000 mm 0,0 UV-I 0 W/m 7,9 C 8,3 C 0,0 km/h (0 Bft) 0,00 %
04.10.2015 01:29 8,0 C 98 % 1015,1 hPa 0,0 l/m 0,0 km/h (0 Bft) O-NO 71 0 min 0,000 mm 0,0 UV-I 0 W/m 7,7 C 8,0 C 0,0 km/h (0 Bft) 0,00 %
04.10.2015 01:34 7,8 C 98 % 1015,2 hPa 0,0 l/m 0,0 km/h (0 Bft) O-NO 70 0 min 0,000 mm 0,0 UV-I 0 W/m 7,5 C 7,8 C 0,0 km/h (0 Bft) 0,00 %
04.10.2015 01:39 7,6 C 98 % 1015,3 hPa 0,0 l/m 0,0 km/h (0 Bft) O-NO 65 0 min 0,000 mm 0,0 UV-I 0 W/m 7,3 C 7,6 C 0,0 km/h (0 Bft) 0,00 %
04.10.2015 01:44 7,6 C 98 % 1015,3 hPa 0,0 l/m 0,0 km/h (0 Bft) O 80 0 min 0,000 mm 0,0 UV-I 0 W/m 7,3 C 7,6 C 0,0 km/h (0 Bft) 0,00 %
04.10.2015 01:49 7,5 C 98 % 1015,2 hPa 0,0 l/m 0,0 km/h (0 Bft) O-NO 66 0 min 0,000 mm 0,0 UV-I 0 W/m 7,2 C 7,5 C 0,0 km/h (0 Bft) 0,00 %
04.10.2015 01:54 7,4 C 98 % 1015,3 hPa 0,0 l/m 0,0 km/h (0 Bft) O-NO 59 0 min 0,000 mm 0,0 UV-I 0 W/m 7,1 C 7,4 C 0,0 km/h (0 Bft) 0,00 %
04.10.2015 01:59 7,3 C 98 % 1015,1 hPa 0,0 l/m 0,0 km/h (0 Bft) O-NO 68 0 min 0,000 mm 0,0 UV-I 0 W/m 7,0 C 7,3 C 0,0 km/h (0 Bft) 0,00 %
04.10.2015 02:04 7,3 C 98 % 1015,3 hPa 0,0 l/m 0,0 km/h (0 Bft) O-NO 69 0 min 0,000 mm 0,0 UV-I 0 W/m 7,0 C 7,3 C 0,0 km/h (0 Bft) 0,00 %
04.10.2015 02:09 7,4 C 99 % 1015,3 hPa 0,0 l/m 0,0 km/h (0 Bft) O-NO 69 0 min 0,000 mm 0,0 UV-I 0 W/m 7,3 C 7,4 C 0,0 km/h (0 Bft) 0,00 %
04.10.2015 02:14 7,6 C 99 % 1015,2 hPa 0,0 l/m 0,0 km/h (0 Bft) O 86 0 min 0,000 mm 0,0 UV-I 0 W/m 7,5 C 7,6 C 0,0 km/h (0 Bft) 0,00 %
04.10.2015 02:19 7,7 C 99 % 1015,1 hPa 0,0 l/m 0,0 km/h (0 Bft) O 101 0 min 0,000 mm 0,0 UV-I 0 W/m 7,6 C 7,7 C 0,0 km/h (0 Bft) 0,00 %
04.10.2015 02:24 7,7 C 99 % 1015,1 hPa 0,0 l/m 0,0 km/h (0 Bft) O-NO 78 0 min 0,000 mm 0,0 UV-I 0 W/m 7,6 C 7,7 C 0,0 km/h (0 Bft) 0,00 %
04.10.2015 02:29 7,6 C 99 % 1015,0 hPa 0,0 l/m 0,0 km/h (0 Bft) O 81 0 min 0,000 mm 0,0 UV-I 0 W/m 7,5 C 7,6 C 0,0 km/h (0 Bft) 0,00 %
04.10.2015 02:34 7,4 C 99 % 1015,2 hPa 0,0 l/m 0,0 km/h (0 Bft) O-NO 67 0 min 0,000 mm 0,0 UV-I 0 W/m 7,3 C 7,4 C 0,0 km/h (0 Bft) 0,00 %
04.10.2015 02:39 7,3 C 98 % 1015,2 hPa 0,0 l/m 0,0 km/h (0 Bft) O-NO 64 0 min 0,000 mm 0,0 UV-I 0 W/m 7,0 C 7,3 C 0,0 km/h (0 Bft) 0,00 %
04.10.2015 02:44 7,2 C 98 % 1015,1 hPa 0,0 l/m 0,0 km/h (0 Bft) O-NO 66 0 min 0,000 mm 0,0 UV-I 0 W/m 6,9 C 7,2 C 0,0 km/h (0 Bft) 0,00 %
04.10.2015 02:49 7,0 C 97 % 1015,1 hPa 0,0 l/m 0,0 km/h (0 Bft) O-NO 72 0 min 0,000 mm 0,0 UV-I 0 W/m 6,6 C 7,0 C 0,0 km/h (0 Bft) 0,00 %
04.10.2015 02:54 7,0 C 99 % 1015,0 hPa 0,0 l/m 0,0 km/h (0 Bft) O 88 0 min 0,000 mm 0,0 UV-I 0 W/m 6,9 C 7,0 C 0,0 km/h (0 Bft) 0,00 %
04.10.2015 02:59 7,1 C 99 % 1015,0 hPa 0,0 l/m 0,0 km/h (0 Bft) O 95 0 min 0,000 mm 0,0 UV-I 0 W/m 7,0 C 7,1 C 0,0 km/h (0 Bft) 0,00 %
04.10.2015 03:04 7,3 C 99 % 1014,9 hPa 0,0 l/m 0,0 km/h (0 Bft) O 87 0 min 0,000 mm 0,0 UV-I 0 W/m 7,2 C 7,3 C 0,0 km/h (0 Bft) 0,00 %
04.10.2015 03:09 7,3 C 99 % 1015,1 hPa 0,0 l/m 0,0 km/h (0 Bft) O-SO 115 0 min 0,000 mm 0,0 UV-I 0 W/m 7,2 C 7,3 C 0,0 km/h (0 Bft) 0,00 %
04.10.2015 03:14 7,2 C 99 % 1015,0 hPa 0,0 l/m 0,0 km/h (0 Bft) O 86 0 min 0,000 mm 0,0 UV-I 0 W/m 7,1 C 7,2 C 0,0 km/h (0 Bft) 0,00 %
04.10.2015 03:19 7,1 C 97 % 1015,2 hPa 0,0 l/m 0,0 km/h (0 Bft) S 186 0 min 0,000 mm 0,0 UV-I 0 W/m 6,7 C 7,1 C 0,0 km/h (0 Bft) 0,00 %
04.10.2015 03:24 7,0 C 97 % 1015,1 hPa 0,0 l/m 0,0 km/h (0 Bft) S 186 0 min 0,000 mm 0,0 UV-I 0 W/m 6,6 C 7,0 C 0,0 km/h (0 Bft) 0,00 %
04.10.2015 03:29 6,9 C 97 % 1015,5 hPa 0,0 l/m 0,0 km/h (0 Bft) S 186 0 min 0,000 mm 0,0 UV-I 0 W/m 6,5 C 6,9 C 0,0 km/h (0 Bft) 0,00 %
04.10.2015 03:34 6,8 C 97 % 1015,2 hPa 0,0 l/m 0,0 km/h (0 Bft) S 185 0 min 0,000 mm 0,0 UV-I 0 W/m 6,4 C 6,8 C 0,0 km/h (0 Bft) 0,00 %
04.10.2015 03:39 6,6 C 97 % 1015,1 hPa 0,0 l/m 0,0 km/h (0 Bft) O-NO 70 0 min 0,000 mm 0,0 UV-I 0 W/m 6,2 C 6,6 C 0,0 km/h (0 Bft) 0,00 %
04.10.2015 03:44 6,6 C 97 % 1015,1 hPa 0,0 l/m 0,0 km/h (0 Bft) O-NO 68 0 min 0,000 mm 0,0 UV-I 0 W/m 6,2 C 6,6 C 0,0 km/h (0 Bft) 0,00 %
04.10.2015 03:49 6,6 C 97 % 1015,0 hPa 0,0 l/m 0,0 km/h (0 Bft) O-NO 68 0 min 0,000 mm 0,0 UV-I 0 W/m 6,2 C 6,6 C 0,0 km/h (0 Bft) 0,00 %
04.10.2015 03:54 6,6 C 97 % 1015,2 hPa 0,0 l/m 0,0 km/h (0 Bft) S 173 0 min 0,000 mm 0,0 UV-I 0 W/m 6,2 C 6,6 C 0,0 km/h (0 Bft) 0,00 %
04.10.2015 03:59 6,6 C 97 % 1015,2 hPa 0,0 l/m 0,0 km/h (0 Bft) S 173 0 min 0,000 mm 0,0 UV-I 0 W/m 6,2 C 6,6 C 0,0 km/h (0 Bft) 0,00 %
04.10.2015 04:04 6,5 C 97 % 1015,0 hPa 0,0 l/m 0,0 km/h (0 Bft) S 173 0 min 0,000 mm 0,0 UV-I 0 W/m 6,1 C 6,5 C 0,0 km/h (0 Bft) 0,00 %
04.10.2015 04:09 6,5 C 97 % 1014,9 hPa 0,0 l/m 0,0 km/h (0 Bft) O-NO 71 0 min 0,000 mm 0,0 UV-I 0 W/m 6,1 C 6,5 C 0,0 km/h (0 Bft) 0,00 %
04.10.2015 04:14 6,5 C 97 % 1015,2 hPa 0,0 l/m 0,0 km/h (0 Bft) O-NO 70 0 min 0,000 mm 0,0 UV-I 0 W/m 6,1 C 6,5 C 0,0 km/h (0 Bft) 0,00 %
04.10.2015 04:19 6,6 C 97 % 1015,0 hPa 0,0 l/m 0,0 km/h (0 Bft) O 88 0 min 0,000 mm 0,0 UV-I 0 W/m 6,2 C 6,6 C 0,0 km/h (0 Bft) 0,00 %
04.10.2015 04:24 6,6 C 97 % 1015,1 hPa 0,0 l/m 0,0 km/h (0 Bft) O-SO 120 0 min 0,000 mm 0,0 UV-I 0 W/m 6,2 C 6,6 C 0,0 km/h (0 Bft) 0,00 %
04.10.2015 04:29 6,5 C 97 % 1015,1 hPa 0,0 l/m 0,0 km/h (0 Bft) O-SO 117 0 min 0,000 mm 0,0 UV-I 0 W/m 6,1 C 6,5 C 0,0 km/h (0 Bft) 0,00 %
04.10.2015 04:34 6,5 C 97 % 1015,1 hPa 0,0 l/m 0,0 km/h (0 Bft) S 173 0 min 0,000 mm 0,0 UV-I 0 W/m 6,1 C 6,5 C 0,0 km/h (0 Bft) 0,00 %
04.10.2015 04:39 6,5 C 97 % 1015,3 hPa 0,0 l/m 0,0 km/h (0 Bft) O-NO 64 0 min 0,000 mm 0,0 UV-I 0 W/m 6,1 C 6,5 C 0,0 km/h (0 Bft) 0,00 %
04.10.2015 04:44 6,5 C 97 % 1015,1 hPa 0,0 l/m 0,0 km/h (0 Bft) O-NO 64 0 min 0,000 mm 0,0 UV-I 0 W/m 6,1 C 6,5 C 0,0 km/h (0 Bft) 0,00 %
04.10.2015 04:49 6,4 C 97 % 1015,0 hPa 0,0 l/m 0,0 km/h (0 Bft) O-NO 63 0 min 0,000 mm 0,0 UV-I 0 W/m 6,0 C 6,4 C 0,0 km/h (0 Bft) 0,00 %
04.10.2015 04:54 6,2 C 98 % 1014,9 hPa 0,0 l/m 0,0 km/h (0 Bft) O 93 0 min 0,000 mm 0,0 UV-I 0 W/m 5,9 C 6,2 C 0,0 km/h (0 Bft) 0,00 %
04.10.2015 04:59 6,0 C 97 % 1015,2 hPa 0,0 l/m 0,0 km/h (0 Bft) O 80 0 min 0,000 mm 0,0 UV-I 0 W/m 5,6 C 6,0 C 0,0 km/h (0 Bft) 0,00 %
04.10.2015 05:04 6,0 C 97 % 1015,1 hPa 0,0 l/m 0,0 km/h (0 Bft) O 88 0 min 0,000 mm 0,0 UV-I 0 W/m 5,6 C 6,0 C 0,0 km/h (0 Bft) 0,00 %
04.10.2015 05:09 6,1 C 97 % 1015,2 hPa 0,0 l/m 0,0 km/h (0 Bft) O-SO 104 0 min 0,000 mm 0,0 UV-I 0 W/m 5,7 C 6,1 C 0,0 km/h (0 Bft) 0,00 %
04.10.2015 05:14 6,1 C 97 % 1015,3 hPa 0,0 l/m 0,0 km/h (0 Bft) O-NO 75 0 min 0,000 mm 0,0 UV-I 0 W/m 5,7 C 6,1 C 0,0 km/h (0 Bft) 0,00 %
04.10.2015 05:19 6,0 C 98 % 1015,4 hPa 0,0 l/m 0,0 km/h (0 Bft) O 86 0 min 0,000 mm 0,0 UV-I 0 W/m 5,7 C 6,0 C 0,0 km/h (0 Bft) 0,00 %
04.10.2015 05:24 5,7 C 98 % 1015,3 hPa 0,0 l/m 0,0 km/h (0 Bft) SO 130 0 min 0,000 mm 0,0 UV-I 0 W/m 5,4 C 5,7 C 0,0 km/h (0 Bft) 0,00 %
04.10.2015 05:29 5,6 C 98 % 1015,5 hPa 0,0 l/m 0,0 km/h (0 Bft) O 80 0 min 0,000 mm 0,0 UV-I 0 W/m 5,3 C 5,6 C 0,0 km/h (0 Bft) 0,00 %
04.10.2015 05:34 5,6 C 98 % 1015,4 hPa 0,0 l/m 0,0 km/h (0 Bft) O-NO 75 0 min 0,000 mm 0,0 UV-I 0 W/m 5,3 C 5,6 C 0,0 km/h (0 Bft) 0,00 %
04.10.2015 05:40 5,6 C 98 % 1015,3 hPa 0,0 l/m 0,0 km/h (0 Bft) O-NO 75 0 min 0,000 mm 0,0 UV-I 0 W/m 5,3 C 5,6 C 0,0 km/h (0 Bft) 0,00 %
04.10.2015 05:45 5,7 C 98 % 1015,4 hPa 0,0 l/m 0,0 km/h (0 Bft) O-NO 67 0 min 0,000 mm 0,0 UV-I 0 W/m 5,4 C 5,7 C 0,0 km/h (0 Bft) 0,00 %
04.10.2015 05:50 5,7 C 98 % 1015,5 hPa 0,0 l/m 0,0 km/h (0 Bft) O 79 0 min 0,000 mm 0,0 UV-I 0 W/m 5,4 C 5,7 C 0,0 km/h (0 Bft) 0,00 %
04.10.2015 05:55 5,8 C 98 % 1015,5 hPa 0,0 l/m 0,0 km/h (0 Bft) O-NO 65 0 min 0,000 mm 0,0 UV-I 0 W/m 5,5 C 5,8 C 0,0 km/h (0 Bft) 0,00 %
04.10.2015 06:00 5,8 C 97 % 1015,5 hPa 0,0 l/m 0,0 km/h (0 Bft) O-NO 67 0 min 0,000 mm 0,0 UV-I 0 W/m 5,4 C 5,8 C 0,0 km/h (0 Bft) 0,00 %
04.10.2015 06:05 5,9 C 97 % 1015,3 hPa 0,0 l/m 0,0 km/h (0 Bft) O-NO 63 0 min 0,000 mm 0,0 UV-I 0 W/m 5,5 C 5,9 C 0,0 km/h (0 Bft) 0,00 %
04.10.2015 06:10 5,9 C 97 % 1015,4 hPa 0,0 l/m 0,0 km/h (0 Bft) O-NO 63 0 min 0,000 mm 0,0 UV-I 0 W/m 5,5 C 5,9 C 0,0 km/h (0 Bft) 0,00 %
04.10.2015 06:15 6,0 C 97 % 1015,5 hPa 0,0 l/m 0,0 km/h (0 Bft) O-NO 77 0 min 0,000 mm 0,0 UV-I 0 W/m 5,6 C 6,0 C 0,0 km/h (0 Bft) 0,00 %
04.10.2015 06:20 6,0 C 98 % 1015,5 hPa 0,0 l/m 0,0 km/h (0 Bft) O 83 0 min 0,000 mm 0,0 UV-I 0 W/m 5,7 C 6,0 C 0,0 km/h (0 Bft) 0,00 %
04.10.2015 06:25 5,8 C 98 % 1015,4 hPa 0,0 l/m 0,0 km/h (0 Bft) O-NO 76 0 min 0,000 mm 0,0 UV-I 0 W/m 5,5 C 5,8 C 0,0 km/h (0 Bft) 0,00 %
04.10.2015 06:30 5,7 C 98 % 1015,7 hPa 0,0 l/m 0,0 km/h (0 Bft) S 185 0 min 0,000 mm 0,0 UV-I 0 W/m 5,4 C 5,7 C 0,0 km/h (0 Bft) 0,00 %
04.10.2015 06:35 5,6 C 98 % 1015,6 hPa 0,0 l/m 0,0 km/h (0 Bft) S 185 0 min 0,000 mm 0,0 UV-I 0 W/m 5,3 C 5,6 C 0,0 km/h (0 Bft) 0,00 %
04.10.2015 06:40 5,6 C 98 % 1015,6 hPa 0,0 l/m 0,0 km/h (0 Bft) S 185 0 min 0,000 mm 0,0 UV-I 0 W/m 5,3 C 5,6 C 0,0 km/h (0 Bft) 0,00 %
04.10.2015 06:45 5,5 C 98 % 1015,6 hPa 0,0 l/m 0,0 km/h (0 Bft) S-SO 148 0 min 0,000 mm 0,0 UV-I 0 W/m 5,2 C 5,5 C 0,0 km/h (0 Bft) 0,00 %
04.10.2015 06:50 5,6 C 98 % 1015,6 hPa 0,0 l/m 0,0 km/h (0 Bft) O-SO 102 0 min 0,000 mm 0,0 UV-I 0 W/m 5,3 C 5,6 C 0,0 km/h (0 Bft) 0,00 %
04.10.2015 06:55 5,6 C 98 % 1015,5 hPa 0,0 l/m 0,0 km/h (0 Bft) O-SO 114 0 min 0,000 mm 0,0 UV-I 0 W/m 5,3 C 5,6 C 0,0 km/h (0 Bft) 0,00 %
04.10.2015 07:00 5,8 C 97 % 1015,5 hPa 0,0 l/m 0,0 km/h (0 Bft) NO 51 0 min 0,000 mm 0,0 UV-I 0 W/m 5,4 C 5,8 C 0,0 km/h (0 Bft) 0,00 %
04.10.2015 07:05 5,9 C 97 % 1015,5 hPa 0,0 l/m 0,0 km/h (0 Bft) O-NO 71 0 min 0,000 mm 0,0 UV-I 2 W/m 5,5 C 5,9 C 0,0 km/h (0 Bft) 0,00 %
04.10.2015 07:10 6,0 C 97 % 1015,6 hPa 0,0 l/m 0,0 km/h (0 Bft) O-NO 66 0 min 0,000 mm 0,0 UV-I 6 W/m 5,6 C 6,0 C 0,0 km/h (0 Bft) 0,00 %
04.10.2015 07:15 6,0 C 97 % 1015,5 hPa 0,0 l/m 0,0 km/h (0 Bft) O-NO 64 0 min 0,000 mm 0,0 UV-I 11 W/m 5,6 C 6,0 C 0,0 km/h (0 Bft) 0,00 %
04.10.2015 07:20 6,0 C 97 % 1015,4 hPa 0,0 l/m 0,0 km/h (0 Bft) O-NO 65 5 min 0,000 mm 0,0 UV-I 20 W/m 5,6 C 6,0 C 0,0 km/h (0 Bft) 0,00 %
04.10.2015 07:25 6,0 C 97 % 1015,8 hPa 0,0 l/m 0,0 km/h (0 Bft) O-NO 63 5 min 0,000 mm 0,0 UV-I 26 W/m 5,6 C 6,0 C 0,0 km/h (0 Bft) 0,00 %
04.10.2015 07:30 6,0 C 98 % 1015,6 hPa 0,0 l/m 0,0 km/h (0 Bft) O-NO 76 5 min 0,000 mm 0,0 UV-I 32 W/m 5,7 C 6,0 C 0,0 km/h (0 Bft) 0,00 %
04.10.2015 07:35 5,9 C 98 % 1015,6 hPa 0,0 l/m 0,0 km/h (0 Bft) O-NO 69 0 min 0,000 mm 0,0 UV-I 36 W/m 5,6 C 5,9 C 0,0 km/h (0 Bft) 0,00 %
04.10.2015 07:40 5,9 C 97 % 1015,7 hPa 0,0 l/m 0,0 km/h (0 Bft) O-NO 69 5 min 0,000 mm 0,0 UV-I 49 W/m 5,5 C 5,9 C 0,0 km/h (0 Bft) 0,00 %
04.10.2015 07:45 6,1 C 97 % 1015,7 hPa 0,0 l/m 0,0 km/h (0 Bft) O-NO 69 5 min 0,000 mm 0,0 UV-I 57 W/m 5,7 C 6,1 C 0,0 km/h (0 Bft) 0,00 %
04.10.2015 07:50 6,3 C 97 % 1015,8 hPa 0,0 l/m 0,0 km/h (0 Bft) O-NO 66 0 min 0,000 mm 0,0 UV-I 55 W/m 5,9 C 6,3 C 0,0 km/h (0 Bft) 0,00 %
04.10.2015 07:55 6,6 C 97 % 1015,7 hPa 0,0 l/m 0,0 km/h (0 Bft) O-NO 66 0 min 0,000 mm 0,0 UV-I 60 W/m 6,2 C 6,6 C 0,0 km/h (0 Bft) 0,00 %
04.10.2015 08:00 6,8 C 99 % 1015,5 hPa 0,0 l/m 0,0 km/h (0 Bft) O-NO 76 0 min 0,000 mm 0,0 UV-I 75 W/m 6,7 C 6,8 C 0,0 km/h (0 Bft) 0,00 %
04.10.2015 08:05 7,3 C 99 % 1015,6 hPa 0,0 l/m 0,0 km/h (0 Bft) NO 53 5 min 0,000 mm 0,0 UV-I 99 W/m 7,2 C 7,3 C 0,0 km/h (0 Bft) 0,00 %
04.10.2015 08:10 7,9 C 99 % 1015,6 hPa 0,0 l/m 0,0 km/h (0 Bft) O-NO 58 5 min 0,000 mm 0,0 UV-I 93 W/m 7,8 C 7,9 C 0,0 km/h (0 Bft) 0,00 %
04.10.2015 08:15 8,2 C 99 % 1015,7 hPa 0,0 l/m 0,0 km/h (0 Bft) O-NO 62 0 min 0,000 mm 0,0 UV-I 97 W/m 8,1 C 8,2 C 0,0 km/h (0 Bft) 0,00 %
04.10.2015 08:20 8,1 C 99 % 1015,5 hPa 0,0 l/m 0,0 km/h (0 Bft) O 98 5 min 0,000 mm 0,0 UV-I 109 W/m 8,0 C 8,1 C 0,0 km/h (0 Bft) 0,00 %
04.10.2015 08:25 8,2 C 99 % 1015,7 hPa 0,0 l/m 0,0 km/h (0 Bft) O-NO 65 5 min 0,000 mm 0,0 UV-I 117 W/m 8,1 C 8,2 C 0,0 km/h (0 Bft) 0,00 %
04.10.2015 08:30 8,4 C 99 % 1015,5 hPa 0,0 l/m 0,0 km/h (0 Bft) NO 56 5 min 0,000 mm 1,0 UV-I 148 W/m 8,3 C 8,4 C 0,0 km/h (0 Bft) 0,00 %
04.10.2015 08:35 8,7 C 99 % 1015,5 hPa 0,0 l/m 0,0 km/h (0 Bft) O-NO 65 5 min 0,000 mm 1,0 UV-I 144 W/m 8,6 C 8,7 C 0,0 km/h (0 Bft) 0,00 %
04.10.2015 08:40 8,9 C 99 % 1015,8 hPa 0,0 l/m 0,0 km/h (0 Bft) O-NO 58 0 min 0,000 mm 0,0 UV-I 104 W/m 8,8 C 8,9 C 0,0 km/h (0 Bft) 0,00 %
04.10.2015 08:45 8,9 C 99 % 1015,3 hPa 0,0 l/m 0,0 km/h (0 Bft) O-NO 60 0 min 0,000 mm 0,0 UV-I 91 W/m 8,8 C 8,9 C 0,0 km/h (0 Bft) 0,00 %
04.10.2015 08:50 8,7 C 99 % 1016,0 hPa 0,0 l/m 0,0 km/h (0 Bft) O-NO 69 0 min 0,000 mm 1,0 UV-I 94 W/m 8,6 C 8,7 C 0,0 km/h (0 Bft) 0,00 %
04.10.2015 08:55 8,5 C 99 % 1015,7 hPa 0,0 l/m 0,0 km/h (0 Bft) O-NO 58 0 min 0,000 mm 1,0 UV-I 105 W/m 8,4 C 8,5 C 0,0 km/h (0 Bft) 0,00 %
04.10.2015 09:00 8,7 C 99 % 1015,9 hPa 0,0 l/m 0,0 km/h (0 Bft) O-NO 65 0 min 0,000 mm 1,0 UV-I 112 W/m 8,6 C 8,7 C 0,0 km/h (0 Bft) 0,00 %
04.10.2015 09:05 8,9 C 99 % 1016,1 hPa 0,0 l/m 0,0 km/h (0 Bft) O-NO 70 0 min 0,000 mm 1,0 UV-I 121 W/m 8,8 C 8,9 C 0,0 km/h (0 Bft) 0,00 %
04.10.2015 09:10 9,0 C 99 % 1015,8 hPa 0,0 l/m 0,0 km/h (0 Bft) O 88 0 min 0,000 mm 1,0 UV-I 175 W/m 8,9 C 9,0 C 0,0 km/h (0 Bft) 0,00 %
04.10.2015 09:15 9,3 C 99 % 1015,9 hPa 0,0 l/m 0,0 km/h (0 Bft) O 91 5 min 0,000 mm 1,0 UV-I 213 W/m 9,2 C 9,3 C 0,0 km/h (0 Bft) 0,00 %
04.10.2015 09:20 9,8 C 98 % 1015,9 hPa 0,0 l/m 0,0 km/h (0 Bft) O-SO 111 5 min 0,000 mm 1,0 UV-I 206 W/m 9,5 C 9,8 C 0,0 km/h (0 Bft) 0,00 %
04.10.2015 09:25 10,1 C 98 % 1016,1 hPa 0,0 l/m 0,0 km/h (0 Bft) O 83 0 min 0,000 mm 1,0 UV-I 188 W/m 9,8 C 10,1 C 0,0 km/h (0 Bft) 0,00 %
04.10.2015 09:30 10,4 C 98 % 1016,4 hPa 0,0 l/m 0,0 km/h (0 Bft) NO 55 0 min 0,000 mm 1,0 UV-I 171 W/m 10,1 C 10,4 C 0,0 km/h (0 Bft) 0,00 %
04.10.2015 09:35 10,6 C 98 % 1016,2 hPa 0,0 l/m 0,0 km/h (0 Bft) O 81 0 min 0,000 mm 1,0 UV-I 189 W/m 10,3 C 10,6 C 0,0 km/h (0 Bft) 0,00 %
04.10.2015 09:40 10,7 C 97 % 1016,4 hPa 0,0 l/m 0,0 km/h (0 Bft) O-NO 75 0 min 0,000 mm 1,0 UV-I 191 W/m 10,2 C 10,7 C 0,0 km/h (0 Bft) 0,00 %
04.10.2015 09:45 10,8 C 95 % 1016,2 hPa 0,0 l/m 0,0 km/h (0 Bft) O-NO 70 0 min 0,000 mm 1,0 UV-I 189 W/m 10,0 C 10,8 C 0,0 km/h (0 Bft) 0,00 %
04.10.2015 09:50 11,0 C 95 % 1016,3 hPa 0,0 l/m 0,0 km/h (0 Bft) NO 37 0 min 0,000 mm 1,0 UV-I 189 W/m 10,2 C 11,0 C 0,0 km/h (0 Bft) 0,00 %
04.10.2015 09:55 11,3 C 93 % 1016,4 hPa 0,0 l/m 0,0 km/h (0 Bft) O-NO 65 0 min 0,000 mm 1,0 UV-I 209 W/m 10,2 C 11,3 C 0,0 km/h (0 Bft) 0,00 %
04.10.2015 10:00 11,7 C 92 % 1016,4 hPa 0,0 l/m 0,0 km/h (0 Bft) O-SO 103 0 min 0,000 mm 1,0 UV-I 197 W/m 10,4 C 11,7 C 0,0 km/h (0 Bft) 0,00 %
04.10.2015 10:05 12,0 C 89 % 1016,5 hPa 0,0 l/m 0,0 km/h (0 Bft) NO 53 0 min 0,000 mm 1,0 UV-I 179 W/m 10,2 C 12,0 C 0,0 km/h (0 Bft) 0,00 %
04.10.2015 10:10 12,2 C 87 % 1016,7 hPa 0,0 l/m 0,0 km/h (0 Bft) O 84 0 min 0,000 mm 1,0 UV-I 166 W/m 10,1 C 12,2 C 0,0 km/h (0 Bft) 0,00 %
04.10.2015 10:15 12,3 C 86 % 1016,7 hPa 0,0 l/m 0,0 km/h (0 Bft) S 186 0 min 0,000 mm 1,0 UV-I 185 W/m 10,0 C 12,3 C 0,0 km/h (0 Bft) 0,00 %
04.10.2015 10:20 12,3 C 85 % 1016,8 hPa 0,0 l/m 0,0 km/h (0 Bft) SO 133 0 min 0,000 mm 1,0 UV-I 196 W/m 9,9 C 12,3 C 0,0 km/h (0 Bft) 0,00 %
04.10.2015 10:25 12,4 C 85 % 1016,6 hPa 0,0 l/m 0,0 km/h (0 Bft) O-NO 59 0 min 0,000 mm 1,0 UV-I 207 W/m 9,9 C 12,4 C 0,0 km/h (0 Bft) 0,00 %
04.10.2015 10:30 12,4 C 85 % 1016,9 hPa 0,0 l/m 0,0 km/h (0 Bft) O-NO 70 0 min 0,000 mm 1,0 UV-I 214 W/m 9,9 C 12,4 C 0,0 km/h (0 Bft) 0,00 %
04.10.2015 10:35 12,4 C 85 % 1016,7 hPa 0,0 l/m 0,0 km/h (0 Bft) O-NO 67 0 min 0,000 mm 1,0 UV-I 208 W/m 9,9 C 12,4 C 0,0 km/h (0 Bft) 0,00 %
04.10.2015 10:40 12,7 C 84 % 1016,7 hPa 0,0 l/m 0,0 km/h (0 Bft) O-NO 77 0 min 0,000 mm 1,0 UV-I 177 W/m 10,1 C 12,7 C 0,0 km/h (0 Bft) 0,00 %
04.10.2015 10:45 12,9 C 83 % 1016,8 hPa 0,0 l/m 0,0 km/h (0 Bft) NO 51 0 min 0,000 mm 1,0 UV-I 156 W/m 10,1 C 12,9 C 0,0 km/h (0 Bft) 0,00 %
04.10.2015 10:50 12,5 C 85 % 1017,0 hPa 0,0 l/m 0,0 km/h (0 Bft) N-NO 28 0 min 0,000 mm 1,0 UV-I 131 W/m 10,0 C 12,5 C 0,0 km/h (0 Bft) 0,00 %
04.10.2015 10:55 12,3 C 86 % 1016,9 hPa 0,0 l/m 0,0 km/h (0 Bft) O-SO 114 0 min 0,000 mm 1,0 UV-I 122 W/m 10,0 C 12,3 C 0,0 km/h (0 Bft) 0,00 %
04.10.2015 11:00 12,5 C 85 % 1016,9 hPa 0,0 l/m 0,0 km/h (0 Bft) O-NO 59 0 min 0,000 mm 1,0 UV-I 116 W/m 10,0 C 12,5 C 0,0 km/h (0 Bft) 0,00 %
04.10.2015 11:05 12,4 C 85 % 1016,4 hPa 0,0 l/m 0,0 km/h (0 Bft) O-NO 68 0 min 0,000 mm 1,0 UV-I 113 W/m 9,9 C 12,4 C 0,0 km/h (0 Bft) 0,00 %
04.10.2015 11:10 12,2 C 86 % 1016,9 hPa 0,0 l/m 0,0 km/h (0 Bft) O-NO 60 0 min 0,000 mm 1,0 UV-I 114 W/m 9,9 C 12,2 C 0,0 km/h (0 Bft) 0,00 %
04.10.2015 11:15 12,1 C 86 % 1016,8 hPa 0,0 l/m 0,0 km/h (0 Bft) NO 50 0 min 0,000 mm 1,0 UV-I 116 W/m 9,8 C 12,1 C 0,0 km/h (0 Bft) 0,00 %
04.10.2015 11:20 12,0 C 87 % 1016,8 hPa 0,0 l/m 0,0 km/h (0 Bft) O 84 0 min 0,000 mm 1,0 UV-I 130 W/m 9,9 C 12,0 C 0,0 km/h (0 Bft) 0,00 %
04.10.2015 11:25 11,9 C 87 % 1016,8 hPa 0,0 l/m 0,0 km/h (0 Bft) O-NO 64 0 min 0,000 mm 1,0 UV-I 144 W/m 9,8 C 11,9 C 0,0 km/h (0 Bft) 0,00 %
04.10.2015 11:30 12,0 C 87 % 1016,8 hPa 0,0 l/m 0,0 km/h (0 Bft) O-NO 61 0 min 0,000 mm 1,0 UV-I 161 W/m 9,9 C 12,0 C 0,0 km/h (0 Bft) 0,00 %
04.10.2015 11:35 12,2 C 87 % 1017,0 hPa 0,0 l/m 0,0 km/h (0 Bft) O-NO 65 0 min 0,000 mm 1,0 UV-I 166 W/m 10,1 C 12,2 C 0,0 km/h (0 Bft) 0,00 %
04.10.2015 11:40 12,4 C 87 % 1016,9 hPa 0,0 l/m 0,0 km/h (0 Bft) O-NO 67 0 min 0,000 mm 1,0 UV-I 181 W/m 10,3 C 12,4 C 0,0 km/h (0 Bft) 0,00 %
04.10.2015 11:45 12,6 C 86 % 1016,8 hPa 0,0 l/m 0,0 km/h (0 Bft) O-NO 63 0 min 0,000 mm 1,0 UV-I 185 W/m 10,3 C 12,6 C 0,0 km/h (0 Bft) 0,00 %
04.10.2015 11:50 12,7 C 86 % 1016,8 hPa 0,0 l/m 0,0 km/h (0 Bft) NO 43 0 min 0,000 mm 1,0 UV-I 176 W/m 10,4 C 12,7 C 0,0 km/h (0 Bft) 0,00 %
04.10.2015 11:55 12,5 C 87 % 1016,8 hPa 0,0 l/m 0,0 km/h (0 Bft) O-NO 65 0 min 0,000 mm 1,0 UV-I 178 W/m 10,4 C 12,5 C 0,0 km/h (0 Bft) 0,00 %
04.10.2015 12:00 12,2 C 88 % 1016,9 hPa 0,0 l/m 0,0 km/h (0 Bft) O-NO 62 0 min 0,000 mm 1,0 UV-I 171 W/m 10,3 C 12,2 C 0,0 km/h (0 Bft) 0,00 %
04.10.2015 12:05 12,2 C 87 % 1017,1 hPa 0,0 l/m 0,0 km/h (0 Bft) NO 44 0 min 0,000 mm 1,0 UV-I 151 W/m 10,1 C 12,2 C 0,0 km/h (0 Bft) 0,00 %
04.10.2015 12:10 12,2 C 87 % 1016,9 hPa 0,0 l/m 0,0 km/h (0 Bft) O-NO 61 0 min 0,000 mm 1,0 UV-I 142 W/m 10,1 C 12,2 C 0,0 km/h (0 Bft) 0,00 %
04.10.2015 12:15 12,4 C 87 % 1016,8 hPa 0,0 l/m 0,0 km/h (0 Bft) O-NO 57 0 min 0,000 mm 1,0 UV-I 143 W/m 10,3 C 12,4 C 0,0 km/h (0 Bft) 0,00 %
04.10.2015 12:20 12,6 C 87 % 1016,8 hPa 0,0 l/m 0,0 km/h (0 Bft) NO 47 0 min 0,000 mm 1,0 UV-I 146 W/m 10,5 C 12,6 C 0,0 km/h (0 Bft) 0,00 %
04.10.2015 12:25 12,7 C 87 % 1016,8 hPa 0,0 l/m 0,0 km/h (0 Bft) O-NO 64 0 min 0,000 mm 1,0 UV-I 137 W/m 10,6 C 12,7 C 0,0 km/h (0 Bft) 0,00 %
04.10.2015 12:30 12,7 C 87 % 1016,6 hPa 0,0 l/m 0,0 km/h (0 Bft) O-NO 61 0 min 0,000 mm 1,0 UV-I 135 W/m 10,6 C 12,7 C 0,0 km/h (0 Bft) 0,00 %
04.10.2015 12:35 12,7 C 87 % 1016,7 hPa 0,0 l/m 0,0 km/h (0 Bft) O-NO 65 0 min 0,000 mm 1,0 UV-I 133 W/m 10,6 C 12,7 C 0,0 km/h (0 Bft) 0,00 %
04.10.2015 12:40 12,9 C 86 % 1016,9 hPa 0,0 l/m 0,0 km/h (0 Bft) S 174 0 min 0,000 mm 1,0 UV-I 133 W/m 10,6 C 12,9 C 0,0 km/h (0 Bft) 0,00 %
04.10.2015 12:45 13,0 C 86 % 1017,5 hPa 0,0 l/m 0,0 km/h (0 Bft) NO 45 0 min 0,000 mm 1,0 UV-I 110 W/m 10,7 C 13,0 C 0,0 km/h (0 Bft) 0,00 %
04.10.2015 12:50 13,0 C 86 % 1017,3 hPa 0,0 l/m 0,4 km/h (0 Bft) N-NW 328 0 min 0,000 mm 1,0 UV-I 170 W/m 10,7 C 13,0 C 4,0 km/h (1 Bft) 0,00 %
04.10.2015 12:55 13,0 C 86 % 1017,0 hPa 0,0 l/m 0,0 km/h (0 Bft) O 98 0 min 0,000 mm 1,0 UV-I 219 W/m 10,7 C 13,0 C 0,0 km/h (0 Bft) 0,00 %
04.10.2015 13:00 13,0 C 85 % 1017,3 hPa 0,0 l/m 0,7 km/h (0 Bft) W-SW 249 0 min 0,000 mm 1,0 UV-I 289 W/m 10,5 C 13,0 C 4,0 km/h (1 Bft) 0,00 %
04.10.2015 13:05 13,2 C 85 % 1017,1 hPa 0,0 l/m 0,0 km/h (0 Bft) O-SO 120 5 min 0,000 mm 2,0 UV-I 353 W/m 10,7 C 13,2 C 0,0 km/h (0 Bft) 0,00 %
04.10.2015 13:10 13,5 C 83 % 1017,1 hPa 0,0 l/m 1,8 km/h (1 Bft) S 191 0 min 0,000 mm 1,0 UV-I 293 W/m 10,7 C 13,5 C 4,0 km/h (1 Bft) 0,00 %
04.10.2015 13:15 13,9 C 81 % 1017,1 hPa 0,0 l/m 0,0 km/h (0 Bft) O-NO 64 0 min 0,000 mm 1,0 UV-I 285 W/m 10,7 C 13,9 C 0,0 km/h (0 Bft) 0,00 %
04.10.2015 13:20 14,1 C 81 % 1016,9 hPa 0,0 l/m 0,0 km/h (0 Bft) S-SW 200 0 min 0,000 mm 1,0 UV-I 293 W/m 10,9 C 14,1 C 0,0 km/h (0 Bft) 0,00 %
04.10.2015 13:25 14,3 C 79 % 1017,1 hPa 0,0 l/m 5,4 km/h (1 Bft) S 184 0 min 0,000 mm 1,0 UV-I 282 W/m 10,7 C 14,3 C 7,9 km/h (2 Bft) 0,00 %
04.10.2015 13:30 14,4 C 78 % 1017,0 hPa 0,0 l/m 0,0 km/h (0 Bft) S-SW 203 0 min 0,000 mm 1,0 UV-I 277 W/m 10,6 C 14,4 C 0,0 km/h (0 Bft) 0,00 %
04.10.2015 13:35 14,4 C 76 % 1016,9 hPa 0,0 l/m 0,0 km/h (0 Bft) O-NO 78 0 min 0,000 mm 1,0 UV-I 303 W/m 10,2 C 14,4 C 0,0 km/h (0 Bft) 0,00 %
04.10.2015 13:40 14,5 C 75 % 1016,7 hPa 0,0 l/m 0,4 km/h (0 Bft) O-NO 75 5 min 0,000 mm 1,0 UV-I 394 W/m 10,1 C 14,5 C 4,0 km/h (1 Bft) 0,00 %
04.10.2015 13:45 14,6 C 74 % 1016,5 hPa 0,0 l/m 0,0 km/h (0 Bft) S 189 5 min 0,000 mm 2,0 UV-I 604 W/m 10,0 C 14,6 C 0,0 km/h (0 Bft) 0,00 %
04.10.2015 13:50 14,9 C 72 % 1016,8 hPa 0,0 l/m 0,4 km/h (0 Bft) O-SO 102 0 min 0,000 mm 1,0 UV-I 317 W/m 9,9 C 14,9 C 4,0 km/h (1 Bft) 0,00 %
04.10.2015 13:55 15,3 C 71 % 1016,9 hPa 0,0 l/m 0,0 km/h (0 Bft) S 190 5 min 0,000 mm 1,0 UV-I 352 W/m 10,1 C 15,3 C 0,0 km/h (0 Bft) 0,00 %
04.10.2015 14:00 15,7 C 70 % 1016,8 hPa 0,0 l/m 3,2 km/h (1 Bft) SW 225 0 min 0,000 mm 1,0 UV-I 280 W/m 10,2 C 15,7 C 7,9 km/h (2 Bft) 0,00 %
04.10.2015 14:05 15,9 C 71 % 1016,8 hPa 0,0 l/m 0,0 km/h (0 Bft) SO 142 0 min 0,000 mm 1,0 UV-I 243 W/m 10,6 C 15,9 C 0,0 km/h (0 Bft) 0,00 %
04.10.2015 14:10 15,8 C 72 % 1017,1 hPa 0,0 l/m 0,0 km/h (0 Bft) O 90 0 min 0,000 mm 1,0 UV-I 266 W/m 10,8 C 15,8 C 0,0 km/h (0 Bft) 0,00 %
04.10.2015 14:15 15,7 C 72 % 1017,0 hPa 0,0 l/m 0,0 km/h (0 Bft) SO 139 0 min 0,000 mm 1,0 UV-I 276 W/m 10,7 C 15,7 C 0,0 km/h (0 Bft) 0,00 %
04.10.2015 14:20 15,8 C 71 % 1016,6 hPa 0,0 l/m 0,7 km/h (0 Bft) S 177 5 min 0,000 mm 1,0 UV-I 580 W/m 10,6 C 15,8 C 4,0 km/h (1 Bft) 0,00 %
04.10.2015 14:25 16,0 C 71 % 1017,0 hPa 0,0 l/m 0,0 km/h (0 Bft) O-NO 67 0 min 0,000 mm 1,0 UV-I 280 W/m 10,7 C 16,0 C 0,0 km/h (0 Bft) 0,00 %
04.10.2015 14:30 16,3 C 70 % 1016,8 hPa 0,0 l/m 2,2 km/h (1 Bft) N-NW 337 0 min 0,000 mm 1,0 UV-I 303 W/m 10,8 C 16,3 C 4,0 km/h (1 Bft) 0,00 %
04.10.2015 14:35 16,6 C 68 % 1016,8 hPa 0,0 l/m 2,2 km/h (1 Bft) SW 227 5 min 0,000 mm 1,0 UV-I 340 W/m 10,7 C 16,6 C 4,0 km/h (1 Bft) 0,00 %
04.10.2015 14:40 16,7 C 68 % 1016,6 hPa 0,0 l/m 0,0 km/h (0 Bft) S-SO 154 5 min 0,000 mm 2,0 UV-I 435 W/m 10,8 C 16,7 C 0,0 km/h (0 Bft) 0,00 %
04.10.2015 14:45 17,0 C 66 % 1016,8 hPa 0,0 l/m 3,2 km/h (1 Bft) S-SW 196 5 min 0,000 mm 2,0 UV-I 348 W/m 10,6 C 17,0 C 4,0 km/h (1 Bft) 0,00 %
04.10.2015 14:50 17,4 C 65 % 1016,8 hPa 0,0 l/m 1,8 km/h (1 Bft) S 186 5 min 0,000 mm 1,0 UV-I 379 W/m 10,8 C 17,4 C 4,0 km/h (1 Bft) 0,00 %
04.10.2015 14:55 17,6 C 65 % 1017,0 hPa 0,0 l/m 0,0 km/h (0 Bft) O-NO 70 0 min 0,000 mm 1,0 UV-I 258 W/m 10,9 C 17,6 C 0,0 km/h (0 Bft) 0,00 %
04.10.2015 15:00 17,7 C 65 % 1017,1 hPa 0,0 l/m 0,4 km/h (0 Bft) S 185 0 min 0,000 mm 1,0 UV-I 263 W/m 11,0 C 17,7 C 4,0 km/h (1 Bft) 0,00 %
04.10.2015 15:05 17,7 C 65 % 1016,9 hPa 0,0 l/m 0,0 km/h (0 Bft) O 99 5 min 0,000 mm 1,0 UV-I 342 W/m 11,0 C 17,7 C 0,0 km/h (0 Bft) 0,00 %
04.10.2015 15:10 17,6 C 64 % 1017,1 hPa 0,0 l/m 0,4 km/h (0 Bft) O 99 0 min 0,000 mm 1,0 UV-I 192 W/m 10,7 C 17,6 C 4,0 km/h (1 Bft) 0,00 %
04.10.2015 15:15 17,6 C 65 % 1017,1 hPa 0,0 l/m 5,8 km/h (2 Bft) S 179 0 min 0,000 mm 1,0 UV-I 254 W/m 10,9 C 17,6 C 7,9 km/h (2 Bft) 0,00 %
04.10.2015 15:20 17,6 C 64 % 1016,8 hPa 0,0 l/m 4,7 km/h (1 Bft) S 178 0 min 0,000 mm 1,0 UV-I 230 W/m 10,7 C 17,6 C 7,9 km/h (2 Bft) 0,00 %
04.10.2015 15:25 17,6 C 65 % 1016,8 hPa 0,0 l/m 0,0 km/h (0 Bft) W-SW 253 5 min 0,000 mm 1,0 UV-I 312 W/m 10,9 C 17,6 C 0,0 km/h (0 Bft) 0,00 %
04.10.2015 15:30 17,5 C 65 % 1016,9 hPa 0,0 l/m 4,7 km/h (1 Bft) S-SW 196 5 min 0,000 mm 1,0 UV-I 268 W/m 10,8 C 17,5 C 7,9 km/h (2 Bft) 0,00 %
04.10.2015 15:35 17,4 C 65 % 1016,9 hPa 0,0 l/m 5,8 km/h (2 Bft) SW 235 0 min 0,000 mm 1,0 UV-I 171 W/m 10,8 C 17,4 C 7,9 km/h (2 Bft) 0,00 %
04.10.2015 15:40 17,2 C 66 % 1016,9 hPa 0,0 l/m 9,0 km/h (2 Bft) S-SO 151 0 min 0,000 mm 1,0 UV-I 169 W/m 10,8 C 16,0 C 11,9 km/h (2 Bft) 0,00 %
04.10.2015 15:45 16,8 C 66 % 1017,2 hPa 0,0 l/m 10,4 km/h (2 Bft) S-SW 194 0 min 0,000 mm 1,0 UV-I 166 W/m 10,4 C 14,9 C 15,8 km/h (3 Bft) 0,00 %
04.10.2015 15:50 16,5 C 67 % 1017,2 hPa 0,0 l/m 9,4 km/h (2 Bft) S-SO 159 0 min 0,000 mm 1,0 UV-I 149 W/m 10,4 C 15,0 C 11,9 km/h (2 Bft) 0,00 %
04.10.2015 15:55 16,1 C 68 % 1017,3 hPa 0,0 l/m 0,7 km/h (0 Bft) N-NO 13 0 min 0,000 mm 1,0 UV-I 158 W/m 10,2 C 16,1 C 4,0 km/h (1 Bft) 0,00 %
04.10.2015 16:00 15,8 C 67 % 1017,2 hPa 0,0 l/m 4,3 km/h (1 Bft) W-SW 256 0 min 0,000 mm 1,0 UV-I 147 W/m 9,7 C 15,8 C 7,9 km/h (2 Bft) 0,00 %
04.10.2015 16:05 15,7 C 66 % 1017,5 hPa 0,0 l/m 4,7 km/h (1 Bft) NO 49 0 min 0,000 mm 1,0 UV-I 128 W/m 9,4 C 15,7 C 7,9 km/h (2 Bft) 0,00 %
04.10.2015 16:10 15,6 C 66 % 1017,3 hPa 0,0 l/m 9,4 km/h (2 Bft) S-SW 197 0 min 0,000 mm 0,0 UV-I 105 W/m 9,3 C 14,1 C 11,9 km/h (2 Bft) 0,00 %
04.10.2015 16:15 15,4 C 67 % 1017,6 hPa 0,0 l/m 0,4 km/h (0 Bft) NO 54 0 min 0,000 mm 1,0 UV-I 98 W/m 9,3 C 15,4 C 4,0 km/h (1 Bft) 0,00 %
04.10.2015 16:20 15,3 C 67 % 1017,6 hPa 0,0 l/m 0,0 km/h (0 Bft) N 350 0 min 0,000 mm 0,0 UV-I 71 W/m 9,2 C 15,3 C 0,0 km/h (0 Bft) 0,00 %
04.10.2015 16:25 15,1 C 68 % 1017,6 hPa 0,0 l/m 1,8 km/h (1 Bft) S-SW 196 0 min 0,000 mm 1,0 UV-I 96 W/m 9,2 C 15,1 C 4,0 km/h (1 Bft) 0,00 %
04.10.2015 16:30 15,0 C 68 % 1017,6 hPa 0,0 l/m 4,0 km/h (1 Bft) W-SW 256 0 min 0,000 mm 0,0 UV-I 63 W/m 9,1 C 15,0 C 7,9 km/h (2 Bft) 0,00 %
04.10.2015 16:35 14,9 C 69 % 1017,6 hPa 0,0 l/m 6,5 km/h (2 Bft) N 350 0 min 0,000 mm 0,0 UV-I 37 W/m 9,3 C 14,9 C 7,9 km/h (2 Bft) 0,00 %
04.10.2015 16:40 14,7 C 67 % 1017,7 hPa 0,0 l/m 9,4 km/h (2 Bft) S 191 0 min 0,000 mm 0,0 UV-I 32 W/m 8,6 C 13,1 C 11,9 km/h (2 Bft) 0,00 %
04.10.2015 16:45 14,5 C 68 % 1017,9 hPa 0,0 l/m 6,8 km/h (2 Bft) S-SW 206 0 min 0,000 mm 0,0 UV-I 27 W/m 8,7 C 14,3 C 11,9 km/h (2 Bft) 0,00 %
04.10.2015 16:50 14,2 C 68 % 1018,0 hPa 0,0 l/m 1,8 km/h (1 Bft) O-SO 111 0 min 0,000 mm 0,0 UV-I 23 W/m 8,4 C 14,2 C 4,0 km/h (1 Bft) 0,00 %
04.10.2015 16:55 14,1 C 69 % 1018,1 hPa 0,0 l/m 5,4 km/h (1 Bft) SW 218 0 min 0,000 mm 0,0 UV-I 20 W/m 8,5 C 14,1 C 7,9 km/h (2 Bft) 0,00 %
04.10.2015 17:00 13,9 C 71 % 1018,2 hPa 0,0 l/m 4,7 km/h (1 Bft) NW 307 0 min 0,000 mm 0,0 UV-I 30 W/m 8,7 C 13,9 C 7,9 km/h (2 Bft) 0,00 %
04.10.2015 17:05 13,8 C 71 % 1017,9 hPa 0,0 l/m 6,5 km/h (2 Bft) W-SW 256 0 min 0,000 mm 1,0 UV-I 121 W/m 8,6 C 13,8 C 7,9 km/h (2 Bft) 0,00 %
04.10.2015 17:10 13,7 C 71 % 1018,0 hPa 0,0 l/m 9,0 km/h (2 Bft) S 186 0 min 0,000 mm 0,0 UV-I 72 W/m 8,5 C 12,2 C 11,9 km/h (2 Bft) 0,00 %
04.10.2015 17:15 13,6 C 71 % 1018,3 hPa 0,0 l/m 5,8 km/h (2 Bft) SW 230 0 min 0,000 mm 0,0 UV-I 37 W/m 8,4 C 13,6 C 11,9 km/h (2 Bft) 0,00 %
04.10.2015 17:20 13,5 C 71 % 1018,3 hPa 0,0 l/m 7,2 km/h (2 Bft) W-SW 255 0 min 0,000 mm 0,0 UV-I 47 W/m 8,3 C 13,0 C 11,9 km/h (2 Bft) 0,00 %
04.10.2015 17:25 13,3 C 71 % 1018,1 hPa 0,0 l/m 0,0 km/h (0 Bft) NO 55 0 min 0,000 mm 0,0 UV-I 46 W/m 8,2 C 13,3 C 0,0 km/h (0 Bft) 0,00 %
04.10.2015 17:30 13,2 C 71 % 1017,8 hPa 0,0 l/m 6,5 km/h (2 Bft) S 172 0 min 0,000 mm 0,0 UV-I 37 W/m 8,1 C 13,2 C 11,9 km/h (2 Bft) 0,00 %
04.10.2015 17:35 13,1 C 71 % 1017,8 hPa 0,0 l/m 0,0 km/h (0 Bft) N-NW 348 0 min 0,000 mm 0,0 UV-I 28 W/m 8,0 C 13,1 C 0,0 km/h (0 Bft) 0,00 %
04.10.2015 17:40 13,0 C 72 % 1017,9 hPa 0,0 l/m 0,0 km/h (0 Bft) N-NW 342 0 min 0,000 mm 0,0 UV-I 7 W/m 8,1 C 13,0 C 0,0 km/h (0 Bft) 0,00 %
04.10.2015 17:45 12,9 C 72 % 1018,1 hPa 0,0 l/m 7,9 km/h (2 Bft) NW 305 0 min 0,000 mm 0,0 UV-I 3 W/m 8,0 C 12,0 C 11,9 km/h (2 Bft) 0,00 %
04.10.2015 17:50 12,8 C 73 % 1018,0 hPa 0,0 l/m 0,0 km/h (0 Bft) O 97 0 min 0,000 mm 0,0 UV-I 6 W/m 8,1 C 12,8 C 0,0 km/h (0 Bft) 0,00 %
04.10.2015 17:55 12,7 C 73 % 1018,0 hPa 0,0 l/m 2,9 km/h (1 Bft) SW 228 0 min 0,000 mm 0,0 UV-I 6 W/m 8,0 C 12,7 C 4,0 km/h (1 Bft) 0,00 %
04.10.2015 18:00 12,6 C 74 % 1018,2 hPa 0,0 l/m 7,9 km/h (2 Bft) SW 214 0 min 0,000 mm 0,0 UV-I 5 W/m 8,1 C 11,6 C 11,9 km/h (2 Bft) 0,00 %
04.10.2015 18:05 12,5 C 75 % 1018,2 hPa 0,0 l/m 5,4 km/h (1 Bft) O-SO 106 0 min 0,000 mm 0,0 UV-I 6 W/m 8,2 C 12,5 C 7,9 km/h (2 Bft) 0,00 %
04.10.2015 18:10 12,3 C 78 % 1018,1 hPa 0,0 l/m 5,4 km/h (1 Bft) S-SW 204 0 min 0,000 mm 0,0 UV-I 4 W/m 8,6 C 12,3 C 7,9 km/h (2 Bft) 0,00 %
04.10.2015 18:15 12,0 C 80 % 1018,3 hPa 0,0 l/m 7,2 km/h (2 Bft) S 180 0 min 0,000 mm 0,0 UV-I 0 W/m 8,7 C 11,5 C 11,9 km/h (2 Bft) 0,00 %
04.10.2015 18:20 11,6 C 81 % 1018,4 hPa 0,0 l/m 10,4 km/h (2 Bft) SW 216 0 min 0,000 mm 0,0 UV-I 0 W/m 8,5 C 9,1 C 15,8 km/h (3 Bft) 0,00 %
04.10.2015 18:25 11,3 C 82 % 1018,3 hPa 0,0 l/m 6,5 km/h (2 Bft) S 187 0 min 0,000 mm 0,0 UV-I 0 W/m 8,3 C 11,3 C 7,9 km/h (2 Bft) 0,00 %
04.10.2015 18:30 11,1 C 82 % 1018,4 hPa 0,0 l/m 4,7 km/h (1 Bft) W-SW 253 0 min 0,000 mm 0,0 UV-I 0 W/m 8,1 C 11,1 C 7,9 km/h (2 Bft) 0,00 %
04.10.2015 18:35 11,0 C 82 % 1018,3 hPa 0,0 l/m 4,0 km/h (1 Bft) W-SW 258 0 min 0,000 mm 0,0 UV-I 0 W/m 8,0 C 11,0 C 7,9 km/h (2 Bft) 0,00 %
04.10.2015 18:40 11,0 C 82 % 1018,2 hPa 0,0 l/m 4,0 km/h (1 Bft) O 92 0 min 0,000 mm 0,0 UV-I 0 W/m 8,0 C 11,0 C 7,9 km/h (2 Bft) 0,00 %
04.10.2015 18:45 10,9 C 83 % 1018,2 hPa 0,0 l/m 0,4 km/h (0 Bft) O 85 0 min 0,000 mm 0,0 UV-I 0 W/m 8,1 C 10,9 C 4,0 km/h (1 Bft) 0,00 %
04.10.2015 18:50 10,9 C 82 % 1018,3 hPa 0,0 l/m 1,8 km/h (1 Bft) S 179 0 min 0,000 mm 0,0 UV-I 0 W/m 7,9 C 10,9 C 4,0 km/h (1 Bft) 0,00 %
04.10.2015 18:55 10,9 C 82 % 1018,4 hPa 0,0 l/m 2,2 km/h (1 Bft) S 182 0 min 0,000 mm 0,0 UV-I 0 W/m 7,9 C 10,9 C 7,9 km/h (2 Bft) 0,00 %
04.10.2015 19:00 10,9 C 82 % 1018,6 hPa 0,0 l/m 8,3 km/h (2 Bft) S-SW 206 0 min 0,000 mm 0,0 UV-I 0 W/m 7,9 C 9,6 C 11,9 km/h (2 Bft) 0,00 %
04.10.2015 19:05 10,9 C 81 % 1018,5 hPa 0,0 l/m 6,5 km/h (2 Bft) S 179 0 min 0,000 mm 0,0 UV-I 0 W/m 7,8 C 10,9 C 7,9 km/h (2 Bft) 0,00 %
04.10.2015 19:10 10,9 C 80 % 1018,5 hPa 0,0 l/m 1,4 km/h (1 Bft) S-SO 149 0 min 0,000 mm 0,0 UV-I 0 W/m 7,6 C 10,9 C 4,0 km/h (1 Bft) 0,00 %
04.10.2015 19:15 11,0 C 80 % 1018,6 hPa 0,0 l/m 4,7 km/h (1 Bft) S 170 0 min 0,000 mm 0,0 UV-I 0 W/m 7,7 C 11,0 C 7,9 km/h (2 Bft) 0,00 %
04.10.2015 19:20 11,0 C 80 % 1018,5 hPa 0,0 l/m 0,4 km/h (0 Bft) S 187 0 min 0,000 mm 0,0 UV-I 0 W/m 7,7 C 11,0 C 4,0 km/h (1 Bft) 0,00 %
04.10.2015 19:25 11,0 C 80 % 1018,6 hPa 0,0 l/m 1,8 km/h (1 Bft) O-NO 59 0 min 0,000 mm 0,0 UV-I 0 W/m 7,7 C 11,0 C 4,0 km/h (1 Bft) 0,00 %
04.10.2015 19:30 11,0 C 80 % 1018,7 hPa 0,0 l/m 10,4 km/h (2 Bft) S 185 0 min 0,000 mm 0,0 UV-I 0 W/m 7,7 C 8,5 C 11,9 km/h (2 Bft) 0,00 %
04.10.2015 19:35 11,0 C 79 % 1018,6 hPa 0,0 l/m 0,4 km/h (0 Bft) O-NO 74 0 min 0,000 mm 0,0 UV-I 0 W/m 7,5 C 11,0 C 4,0 km/h (1 Bft) 0,00 %
04.10.2015 19:40 11,0 C 79 % 1018,4 hPa 0,0 l/m 2,9 km/h (1 Bft) SO 145 0 min 0,000 mm 0,0 UV-I 0 W/m 7,5 C 11,0 C 4,0 km/h (1 Bft) 0,00 %
04.10.2015 19:45 11,0 C 79 % 1018,5 hPa 0,0 l/m 3,2 km/h (1 Bft) S 182 0 min 0,000 mm 0,0 UV-I 0 W/m 7,5 C 11,0 C 4,0 km/h (1 Bft) 0,00 %
04.10.2015 19:50 11,0 C 79 % 1018,5 hPa 0,0 l/m 4,0 km/h (1 Bft) W-SW 255 0 min 0,000 mm 0,0 UV-I 0 W/m 7,5 C 11,0 C 4,0 km/h (1 Bft) 0,00 %
04.10.2015 19:55 11,0 C 79 % 1018,5 hPa 0,0 l/m 5,4 km/h (1 Bft) S-SW 201 0 min 0,000 mm 0,0 UV-I 0 W/m 7,5 C 11,0 C 11,9 km/h (2 Bft) 0,00 %
04.10.2015 20:00 11,0 C 79 % 1018,5 hPa 0,0 l/m 7,2 km/h (2 Bft) W-SW 256 0 min 0,000 mm 0,0 UV-I 0 W/m 7,5 C 10,4 C 11,9 km/h (2 Bft) 0,00 %
04.10.2015 20:05 11,0 C 79 % 1018,7 hPa 0,0 l/m 6,8 km/h (2 Bft) S 185 0 min 0,000 mm 0,0 UV-I 0 W/m 7,5 C 10,7 C 7,9 km/h (2 Bft) 0,00 %
04.10.2015 20:10 11,0 C 79 % 1018,8 hPa 0,0 l/m 3,2 km/h (1 Bft) S 187 0 min 0,000 mm 0,0 UV-I 0 W/m 7,5 C 11,0 C 7,9 km/h (2 Bft) 0,00 %
04.10.2015 20:15 11,0 C 79 % 1018,6 hPa 0,0 l/m 7,2 km/h (2 Bft) S 180 0 min 0,000 mm 0,0 UV-I 0 W/m 7,5 C 10,4 C 11,9 km/h (2 Bft) 0,00 %
04.10.2015 20:20 11,0 C 80 % 1018,6 hPa 0,0 l/m 0,0 km/h (0 Bft) O-NO 64 0 min 0,000 mm 0,0 UV-I 0 W/m 7,7 C 11,0 C 0,0 km/h (0 Bft) 0,00 %
04.10.2015 20:25 11,0 C 80 % 1018,7 hPa 0,0 l/m 0,7 km/h (0 Bft) SO 127 0 min 0,000 mm 0,0 UV-I 0 W/m 7,7 C 11,0 C 4,0 km/h (1 Bft) 0,00 %
04.10.2015 20:30 11,0 C 79 % 1018,6 hPa 0,0 l/m 3,2 km/h (1 Bft) SW 231 0 min 0,000 mm 0,0 UV-I 0 W/m 7,5 C 11,0 C 4,0 km/h (1 Bft) 0,00 %
04.10.2015 20:35 11,0 C 79 % 1018,9 hPa 0,0 l/m 1,8 km/h (1 Bft) W-SW 252 0 min 0,000 mm 0,0 UV-I 0 W/m 7,5 C 11,0 C 4,0 km/h (1 Bft) 0,00 %
04.10.2015 20:40 11,0 C 79 % 1018,5 hPa 0,0 l/m 7,2 km/h (2 Bft) W-SW 251 0 min 0,000 mm 0,0 UV-I 0 W/m 7,5 C 10,4 C 11,9 km/h (2 Bft) 0,00 %
04.10.2015 20:45 11,0 C 80 % 1018,4 hPa 0,0 l/m 5,8 km/h (2 Bft) S-SW 210 0 min 0,000 mm 0,0 UV-I 0 W/m 7,7 C 11,0 C 7,9 km/h (2 Bft) 0,00 %
04.10.2015 20:50 11,0 C 80 % 1018,4 hPa 0,0 l/m 0,4 km/h (0 Bft) W-SW 256 0 min 0,000 mm 0,0 UV-I 0 W/m 7,7 C 11,0 C 4,0 km/h (1 Bft) 0,00 %
04.10.2015 20:55 11,0 C 80 % 1018,5 hPa 0,0 l/m 0,0 km/h (0 Bft) NO 48 0 min 0,000 mm 0,0 UV-I 0 W/m 7,7 C 11,0 C 0,0 km/h (0 Bft) 0,00 %
04.10.2015 21:00 10,9 C 81 % 1018,5 hPa 0,0 l/m 4,0 km/h (1 Bft) O-SO 116 0 min 0,000 mm 0,0 UV-I 0 W/m 7,8 C 10,9 C 7,9 km/h (2 Bft) 0,00 %
04.10.2015 21:05 10,9 C 81 % 1018,5 hPa 0,0 l/m 0,0 km/h (0 Bft) O-NO 71 0 min 0,000 mm 0,0 UV-I 0 W/m 7,8 C 10,9 C 0,0 km/h (0 Bft) 0,00 %
04.10.2015 21:10 10,9 C 82 % 1018,5 hPa 0,0 l/m 0,0 km/h (0 Bft) O-SO 113 0 min 0,000 mm 0,0 UV-I 0 W/m 7,9 C 10,9 C 0,0 km/h (0 Bft) 0,00 %
04.10.2015 21:15 10,8 C 83 % 1018,3 hPa 0,0 l/m 0,7 km/h (0 Bft) S 174 0 min 0,000 mm 0,0 UV-I 0 W/m 8,0 C 10,8 C 4,0 km/h (1 Bft) 0,00 %
04.10.2015 21:20 10,7 C 83 % 1018,5 hPa 0,0 l/m 0,0 km/h (0 Bft) O-SO 122 0 min 0,000 mm 0,0 UV-I 0 W/m 7,9 C 10,7 C 0,0 km/h (0 Bft) 0,00 %
04.10.2015 21:25 10,6 C 84 % 1018,7 hPa 0,0 l/m 1,8 km/h (1 Bft) S 182 0 min 0,000 mm 0,0 UV-I 0 W/m 8,0 C 10,6 C 4,0 km/h (1 Bft) 0,00 %
04.10.2015 21:30 10,6 C 85 % 1018,9 hPa 0,0 l/m 5,4 km/h (1 Bft) S-SW 211 0 min 0,000 mm 0,0 UV-I 0 W/m 8,2 C 10,6 C 7,9 km/h (2 Bft) 0,00 %
04.10.2015 21:35 10,5 C 87 % 1018,7 hPa 0,3 l/m 0,0 km/h (0 Bft) O 88 0 min 0,000 mm 0,0 UV-I 0 W/m 8,4 C 10,5 C 0,0 km/h (0 Bft) 0,00 %
04.10.2015 21:40 10,3 C 89 % 1018,9 hPa 0,0 l/m 5,4 km/h (1 Bft) S 179 0 min 0,000 mm 0,0 UV-I 0 W/m 8,6 C 10,3 C 7,9 km/h (2 Bft) 0,00 %
04.10.2015 21:45 10,1 C 90 % 1018,9 hPa 0,3 l/m 0,0 km/h (0 Bft) O-SO 120 0 min 0,000 mm 0,0 UV-I 0 W/m 8,5 C 10,1 C 0,0 km/h (0 Bft) 0,00 %
04.10.2015 21:50 10,0 C 90 % 1018,8 hPa 0,0 l/m 0,0 km/h (0 Bft) O-NO 70 0 min 0,000 mm 0,0 UV-I 0 W/m 8,4 C 10,0 C 0,0 km/h (0 Bft) 0,00 %
04.10.2015 21:55 9,9 C 92 % 1019,0 hPa 0,0 l/m 0,0 km/h (0 Bft) O-NO 61 0 min 0,000 mm 0,0 UV-I 0 W/m 8,7 C 9,9 C 0,0 km/h (0 Bft) 0,00 %
04.10.2015 22:00 9,8 C 92 % 1018,9 hPa 0,0 l/m 0,0 km/h (0 Bft) S 188 0 min 0,000 mm 0,0 UV-I 0 W/m 8,6 C 9,8 C 0,0 km/h (0 Bft) 0,00 %
04.10.2015 22:05 9,7 C 93 % 1018,8 hPa 0,0 l/m 0,0 km/h (0 Bft) O-SO 118 0 min 0,000 mm 0,0 UV-I 0 W/m 8,6 C 9,7 C 0,0 km/h (0 Bft) 0,00 %
04.10.2015 22:10 9,7 C 93 % 1018,7 hPa 0,0 l/m 0,0 km/h (0 Bft) O-SO 121 0 min 0,000 mm 0,0 UV-I 0 W/m 8,6 C 9,7 C 0,0 km/h (0 Bft) 0,00 %
04.10.2015 22:15 9,7 C 93 % 1018,8 hPa 0,0 l/m 0,0 km/h (0 Bft) O-NO 69 0 min 0,000 mm 0,0 UV-I 0 W/m 8,6 C 9,7 C 0,0 km/h (0 Bft) 0,00 %
04.10.2015 22:20 9,7 C 94 % 1018,9 hPa 0,0 l/m 0,0 km/h (0 Bft) S 178 0 min 0,000 mm 0,0 UV-I 0 W/m 8,8 C 9,7 C 0,0 km/h (0 Bft) 0,00 %
04.10.2015 22:25 9,7 C 94 % 1018,9 hPa 0,0 l/m 0,0 km/h (0 Bft) S 173 0 min 0,000 mm 0,0 UV-I 0 W/m 8,8 C 9,7 C 0,0 km/h (0 Bft) 0,00 %
04.10.2015 22:30 9,7 C 94 % 1019,0 hPa 0,0 l/m 0,0 km/h (0 Bft) S 185 0 min 0,000 mm 0,0 UV-I 0 W/m 8,8 C 9,7 C 0,0 km/h (0 Bft) 0,00 %
04.10.2015 22:36 9,7 C 95 % 1018,7 hPa 0,0 l/m 0,0 km/h (0 Bft) O-NO 60 0 min 0,000 mm 0,0 UV-I 0 W/m 8,9 C 9,7 C 0,0 km/h (0 Bft) 0,00 %
04.10.2015 22:41 9,7 C 95 % 1018,4 hPa 0,0 l/m 0,0 km/h (0 Bft) SW 232 0 min 0,000 mm 0,0 UV-I 0 W/m 8,9 C 9,7 C 0,0 km/h (0 Bft) 0,00 %
04.10.2015 22:46 9,7 C 95 % 1018,6 hPa 0,0 l/m 0,0 km/h (0 Bft) SW 232 0 min 0,000 mm 0,0 UV-I 0 W/m 8,9 C 9,7 C 0,0 km/h (0 Bft) 0,00 %
04.10.2015 22:51 9,6 C 95 % 1018,4 hPa 0,3 l/m 0,0 km/h (0 Bft) SO 144 0 min 0,000 mm 0,0 UV-I 0 W/m 8,8 C 9,6 C 0,0 km/h (0 Bft) 0,00 %
04.10.2015 22:56 9,6 C 95 % 1018,6 hPa 0,0 l/m 0,0 km/h (0 Bft) SW 216 0 min 0,000 mm 0,0 UV-I 0 W/m 8,8 C 9,6 C 0,0 km/h (0 Bft) 0,00 %
04.10.2015 23:01 9,6 C 96 % 1018,5 hPa 0,0 l/m 0,0 km/h (0 Bft) S 176 0 min 0,000 mm 0,0 UV-I 0 W/m 9,0 C 9,6 C 0,0 km/h (0 Bft) 0,00 %
04.10.2015 23:06 9,6 C 96 % 1018,2 hPa 0,0 l/m 0,0 km/h (0 Bft) SW 219 0 min 0,000 mm 0,0 UV-I 0 W/m 9,0 C 9,6 C 0,0 km/h (0 Bft) 0,00 %
04.10.2015 23:11 9,6 C 96 % 1018,4 hPa 0,0 l/m 0,0 km/h (0 Bft) S-SW 193 0 min 0,000 mm 0,0 UV-I 0 W/m 9,0 C 9,6 C 0,0 km/h (0 Bft) 0,00 %
04.10.2015 23:16 9,6 C 96 % 1018,3 hPa 0,0 l/m 0,0 km/h (0 Bft) S-SW 193 0 min 0,000 mm 0,0 UV-I 0 W/m 9,0 C 9,6 C 0,0 km/h (0 Bft) 0,00 %
04.10.2015 23:21 9,5 C 96 % 1018,4 hPa 0,0 l/m 0,0 km/h (0 Bft) O-NO 68 0 min 0,000 mm 0,0 UV-I 0 W/m 8,9 C 9,5 C 0,0 km/h (0 Bft) 0,00 %
04.10.2015 23:26 9,5 C 96 % 1018,4 hPa 0,0 l/m 0,0 km/h (0 Bft) O-NO 67 0 min 0,000 mm 0,0 UV-I 0 W/m 8,9 C 9,5 C 0,0 km/h (0 Bft) 0,00 %
04.10.2015 23:31 9,5 C 96 % 1018,3 hPa 0,0 l/m 0,0 km/h (0 Bft) O-NO 77 0 min 0,000 mm 0,0 UV-I 0 W/m 8,9 C 9,5 C 0,0 km/h (0 Bft) 0,00 %
04.10.2015 23:36 9,5 C 96 % 1018,2 hPa 0,0 l/m 0,0 km/h (0 Bft) O-NO 66 0 min 0,000 mm 0,0 UV-I 0 W/m 8,9 C 9,5 C 0,0 km/h (0 Bft) 0,00 %
04.10.2015 23:41 9,4 C 97 % 1018,1 hPa 0,0 l/m 0,0 km/h (0 Bft) O 80 0 min 0,000 mm 0,0 UV-I 0 W/m 8,9 C 9,4 C 0,0 km/h (0 Bft) 0,00 %
04.10.2015 23:46 9,4 C 97 % 1018,3 hPa 0,0 l/m 0,0 km/h (0 Bft) O-SO 106 0 min 0,000 mm 0,0 UV-I 0 W/m 8,9 C 9,4 C 0,0 km/h (0 Bft) 0,00 %
04.10.2015 23:51 9,4 C 97 % 1018,4 hPa 0,0 l/m 0,0 km/h (0 Bft) S 176 0 min 0,000 mm 0,0 UV-I 0 W/m 8,9 C 9,4 C 0,0 km/h (0 Bft) 0,00 %
04.10.2015 23:56 9,4 C 97 % 1018,5 hPa 0,0 l/m 0,0 km/h (0 Bft) S-SW 194 0 min 0,000 mm 0,0 UV-I 0 W/m 8,9 C 9,4 C 0,0 km/h (0 Bft) 0,00 %
_ Min-Zeit 06:45 15:10 00:04 - 00:04 - - - - - - 06:45 06:45 00:04 00:04
Minimum _ 5,5 C 64 % 1014,6 hPa - 0,0 km/h (0 Bft) - - - - - - 5,2 C 5,5 C 0,0 km/h (0 Bft) 0,00 %
_ Max-Zeit 15:00 02:09 21:55 21:35 15:45 - - 07:20 00:04 13:05 13:45 15:00 15:00 15:45 00:04
Maximum _ 17,7 C 99 % 1019,0 hPa 0,3 l/m 10,4 km/h
S-SW (2 Bft)
- - 5 min 0,000 mm 2,0 UV-I 604 W/m 11,0 C 17,7 C 15,8 km/h
S-SW (3 Bft)
0,00 %
Durchschnitt _ 10,4 C 88 % 1016,7 hPa #0,9 l/m 1,2 km/h (1 Bft) S - #2:05 h #0,000 mm 1,0 UV-I 160 W/m 8,3 C 10,3 C 2,1 km/h (1 Bft) 0,00 %